sat.trackr.live / text

‹ back to catalog

FOSSASAT-2E24

NORAD 66780 · 2025-276DV

PAYLOAD ACTIVE UNKNOWN

§ Identity

Operator
Country
SPN
Launch date
2025-11-28
Launch site
AFWTR
Launch vehicle
Mass (kg)
RCS (m²)

External: N2YO · Heavens-Above · Gunter

§ Orbital elements

Epoch: 2026-05-25T03:38:40.712640Z

Period
94.82 min
Inclination
97.4180°
Eccentricity
0.0004185
Mean motion
15.18706281 rev/d
Perigee alt
506.9 km
Apogee alt
512.6 km
Semi-major
6,887.9 km
B*
1.6391e-4
RAAN
218.8854°
Arg perigee
190.8776°
Mean anomaly
169.2369°
Rev number
2,691

§ Raw data

FOSSASAT-2E241 66780U 25276DV  26145.15186010  .00003334  00000+0  16391-3 0  99942 66780  97.4180 218.8854 0004185 190.8776 169.2369 15.18706281 26913

JSON: /api/v1/satellites/66780 · /tle

For live sub-satellite position, see the globe view (requires WebGL).

§ Visibility from observer

Set your observer location to see the next 7 days of passes ≥ 10°. The values pass through the URL so the page stays shareable.

No JS? Fill the form by hand. The geolocation button needs JavaScript.